Regional Weather Roundup
Issued by NWS

Home | Current Version | Previous Version | Text Only | Print | Product List | Glossary Off
Versions: 1 2 3 4 5 6 7 8 9 10 11 12 13 14 15 16 17 18 19 20 21 22 23 24 25 26 27 28 29 30 31 32 33 34 35 36 37 38 39 40 41 42 43 44 45 46 47 48 49 50

000
ASUS43 KBIS 251701
RWRND

NORTH DAKOTA REGIONAL WEATHER ROUNDUP
NATIONAL WEATHER SERVICE BISMARCK ND
1200 PM CDT SAT APR 25 2015

NOTE: "FAIR" INDICATES FEW OR NO CLOUDS BELOW 12,000 FEET WITH NO
SIGNIFICANT WEATHER AND/OR OBSTRUCTIONS TO VISIBILITY.


NDZ001>003-009>011-017-251800-
NORTHWEST NORTH DAKOTA

CITY           SKY/WX    TMP DP  RH WIND       PRES   REMARKS
WILLISTON      CLOUDY    50  42  74 E17       29.74R
MINOT          CLOUDY    48  39  71 E16G22    29.81S
MINOT AFB      CLOUDY    48  46  95 SE17      29.80F
$$

NDZ018>021-031>035-040>046-251800-
SOUTHWEST NORTH DAKOTA

CITY           SKY/WX    TMP DP  RH WIND       PRES   REMARKS
BISMARCK       CLOUDY    47  41  80 E13       29.81S
DICKINSON      CLOUDY    44  43  96 SE14      29.73R FOG
GARRISON         N/A     49  42  77 SE14      29.79S
HETTINGER ARPT FOG       44  42  93 SE13      29.75R VSB 1
$$

NDZ004>008-012>016-024-026-027-054-251800-
NORTHEAST NORTH DAKOTA

CITY           SKY/WX    TMP DP  RH WIND       PRES   REMARKS
GRAND FORKS    PTSUNNY   53  36  52 SE8       29.91S
GRND FRKS AFB  PTSUNNY   51  35  53 SE9       29.91S
DEVILS LAKE    CLOUDY    48  36  61 E16G22    29.87R
$$

NDZ022-023-025-028>030-036>039-047>053-251800-
SOUTHEAST NORTH DAKOTA

CITY           SKY/WX    TMP DP  RH WIND       PRES   REMARKS
FARGO          CLOUDY    48  37  65 E10       29.90R
JAMESTOWN      CLOUDY    45  39  79 E12       29.85S
$$




USA.gov is the U.S. government's official web portal to all federal, state and local government web resources and services.